Time,TemperatureF,DewpointF,PressureIn,WindDirection,WindDirectionDegrees,WindSpeedMPH,WindSpeedGustMPH,Humidity,HourlyPrecipIn,Conditions,Clouds,dailyrainin,SoftwareType,DateUTC
2013-06-23 00:02:00,60.0,55.0,29.85,WSW,245,0.0,0.0,85,0.00,,,0.00,,2013-06-23 07:02:00,
2013-06-23 00:12:00,60.0,56.0,29.85,WSW,246,0.0,0.0,86,0.00,,,0.00,,2013-06-23 07:12:00,
2013-06-23 00:22:00,60.0,56.0,29.85,WSW,246,0.0,0.0,86,0.00,,,0.00,,2013-06-23 07:22:00,
2013-06-23 00:33:00,60.0,55.0,29.85,WSW,245,0.0,0.0,85,0.00,,,0.00,,2013-06-23 07:33:00,
2013-06-23 00:42:00,60.0,56.0,29.85,WSW,246,0.0,0.0,86,0.00,,,0.00,,2013-06-23 07:42:00,
2013-06-23 00:53:00,60.0,56.0,29.85,WSW,246,0.0,0.0,86,0.00,,,0.00,,2013-06-23 07:53:00,
2013-06-23 01:02:00,60.0,56.0,29.84,WSW,245,0.0,0.0,87,0.00,,,0.00,,2013-06-23 08:02:00,
2013-06-23 01:11:00,60.0,56.0,29.84,WSW,246,0.0,0.0,87,0.00,,,0.00,,2013-06-23 08:11:00,
2013-06-23 01:33:00,59.0,55.0,29.83,WSW,245,0.0,0.0,87,0.00,,,0.00,,2013-06-23 08:33:00,
2013-06-23 01:42:00,59.0,55.0,29.83,WSW,246,0.0,0.0,86,0.00,,,0.00,,2013-06-23 08:42:00,
2013-06-23 01:53:00,59.0,54.0,29.83,WSW,246,0.0,0.0,85,0.00,,,0.00,,2013-06-23 08:53:00,
2013-06-23 02:02:00,59.0,55.0,29.83,WSW,246,0.0,0.0,86,0.00,,,0.00,,2013-06-23 09:02:00,
2013-06-23 02:12:00,59.0,55.0,29.83,WSW,245,0.0,0.0,87,0.00,,,0.00,,2013-06-23 09:12:00,
2013-06-23 02:22:00,59.0,55.0,29.83,WSW,246,0.0,0.0,88,0.00,,,0.00,,2013-06-23 09:22:00,
2013-06-23 02:34:00,58.0,54.0,29.83,WSW,246,0.0,0.0,88,0.00,,,0.00,,2013-06-23 09:34:00,
2013-06-23 02:43:00,58.0,54.0,29.83,WSW,246,0.0,0.0,88,0.00,,,0.00,,2013-06-23 09:43:00,
2013-06-23 02:53:00,58.0,54.0,29.83,WSW,245,0.0,0.0,88,0.00,,,0.00,,2013-06-23 09:53:00,
2013-06-23 03:02:00,58.0,54.0,29.83,WSW,246,0.0,0.0,88,0.00,,,0.00,,2013-06-23 10:02:00,
2013-06-23 03:11:00,58.0,55.0,29.83,WSW,246,0.0,0.0,89,0.00,,,0.00,,2013-06-23 10:11:00,
2013-06-23 03:34:00,58.0,55.0,29.83,WSW,245,0.0,0.0,89,0.00,,,0.00,,2013-06-23 10:34:00,
2013-06-23 03:43:00,58.0,55.0,29.83,WSW,246,0.0,0.0,89,0.00,,,0.00,,2013-06-23 10:43:00,
2013-06-23 03:52:00,57.0,54.0,29.83,WSW,246,0.0,0.0,89,0.00,,,0.00,,2013-06-23 10:52:00,
2013-06-23 04:01:00,57.0,54.0,29.82,WSW,245,0.0,0.0,89,0.00,,,0.00,,2013-06-23 11:01:00,
2013-06-23 04:11:00,57.0,54.0,29.82,WSW,245,0.0,0.0,90,0.00,,,0.00,,2013-06-23 11:11:00,
2013-06-23 04:22:00,57.0,54.0,29.82,WSW,246,0.0,0.0,90,0.00,,,0.00,,2013-06-23 11:22:00,
2013-06-23 04:33:00,56.0,53.0,29.82,WSW,245,0.0,0.0,90,0.00,,,0.00,,2013-06-23 11:33:00,
2013-06-23 04:43:00,56.0,53.0,29.83,WSW,245,0.0,0.0,90,0.00,,,0.00,,2013-06-23 11:43:00,
2013-06-23 04:53:00,56.0,53.0,29.83,WSW,246,0.0,0.0,90,0.00,,,0.00,,2013-06-23 11:53:00,
2013-06-23 05:01:00,56.0,53.0,29.83,WSW,246,0.0,0.0,91,0.00,,,0.00,,2013-06-23 12:01:00,
2013-06-23 05:11:00,56.0,54.0,29.83,WSW,245,0.0,0.0,92,0.00,,,0.00,,2013-06-23 12:11:00,
2013-06-23 05:33:00,56.0,54.0,29.84,WSW,246,0.0,0.0,93,0.00,,,0.00,,2013-06-23 12:33:00,
2013-06-23 05:53:00,57.0,55.0,29.85,WSW,245,0.0,0.0,94,0.00,,,0.00,,2013-06-23 12:53:00,
2013-06-23 06:01:00,57.0,56.0,29.85,WSW,246,0.0,0.0,95,0.00,,,0.00,,2013-06-23 13:01:00,
2013-06-23 06:33:00,56.0,54.0,29.85,WSW,246,0.0,0.0,93,0.00,,,0.00,,2013-06-23 13:33:00,
2013-06-23 06:43:00,56.0,54.0,29.86,WSW,246,0.0,0.0,94,0.00,,,0.00,,2013-06-23 13:43:00,
2013-06-23 06:53:00,56.0,54.0,29.86,WSW,246,0.0,0.0,94,0.00,,,0.00,,2013-06-23 13:53:00,
2013-06-23 07:11:00,57.0,55.0,29.85,NE,50,0.0,0.0,93,0.00,,,0.00,,2013-06-23 14:11:00,
2013-06-23 07:52:00,58.0,56.0,29.85,NE,50,0.0,0.0,93,0.00,,,0.00,,2013-06-23 14:52:00,
2013-06-23 08:05:00,59.0,57.0,29.86,NE,49,0.0,0.0,92,0.00,,,0.00,,2013-06-23 15:05:00,
2013-06-23 08:11:00,59.0,57.0,29.86,NE,49,0.0,0.0,92,0.00,,,0.00,,2013-06-23 15:11:00,
2013-06-23 08:34:00,60.0,57.0,29.87,North,360,0.0,0.0,91,0.00,,,0.00,,2013-06-23 15:34:00,
2013-06-23 08:43:00,60.0,57.0,29.87,North,360,0.0,0.0,91,0.00,,,0.00,,2013-06-23 15:43:00,
2013-06-23 08:52:00,60.0,57.0,29.87,North,360,0.0,0.0,91,0.00,,,0.00,,2013-06-23 15:52:00,
2013-06-23 09:05:00,60.0,57.0,29.87,North,360,0.0,0.0,90,0.00,,,0.00,,2013-06-23 16:05:00,
2013-06-23 09:11:00,61.0,58.0,29.87,North,360,0.0,0.0,89,0.00,,,0.00,,2013-06-23 16:11:00,
2013-06-23 09:34:00,61.0,57.0,29.87,North,360,0.0,0.0,88,0.00,,,0.00,,2013-06-23 16:34:00,
2013-06-23 09:42:00,62.0,58.0,29.87,North,360,0.0,0.0,87,0.00,,,0.00,,2013-06-23 16:42:00,
2013-06-23 09:52:00,62.0,58.0,29.87,North,355,0.0,0.0,86,0.00,,,0.00,,2013-06-23 16:52:00,
2013-06-23 10:11:00,63.0,58.0,29.88,SW,236,0.0,0.0,84,0.00,,,0.00,,2013-06-23 17:11:00,
2013-06-23 10:22:00,63.0,58.0,29.88,WSW,239,1.0,4.0,84,0.00,,,0.00,,2013-06-23 17:22:00,
2013-06-23 10:33:00,63.0,58.0,29.88,WSW,240,1.0,4.0,84,0.00,,,0.00,,2013-06-23 17:33:00,
2013-06-23 10:43:00,63.0,58.0,29.88,WSW,240,1.0,2.0,83,0.00,,,0.00,,2013-06-23 17:43:00,
2013-06-23 10:52:00,63.0,57.0,29.88,WSW,240,0.0,1.0,82,0.00,,,0.00,,2013-06-23 17:52:00,
2013-06-23 11:01:00,64.0,58.0,29.88,South,184,1.0,4.0,80,0.00,,,0.00,,2013-06-23 18:01:00,
2013-06-23 11:11:00,64.0,57.0,29.88,South,178,0.0,4.0,79,0.00,,,0.00,,2013-06-23 18:11:00,
2013-06-23 11:22:00,65.0,58.0,29.88,South,188,1.0,3.0,79,0.00,,,0.00,,2013-06-23 18:22:00,
2013-06-23 11:33:00,66.0,59.0,29.88,WSW,256,0.0,4.0,77,0.00,,,0.00,,2013-06-23 18:33:00,
2013-06-23 11:42:00,66.0,59.0,29.88,SSW,211,1.0,5.0,77,0.00,,,0.00,,2013-06-23 18:42:00,
2013-06-23 11:53:00,67.0,59.0,29.87,SW,227,0.0,4.0,76,0.00,,,0.00,,2013-06-23 18:53:00,
2013-06-23 12:01:00,67.0,59.0,29.88,SW,228,1.0,4.0,75,0.00,,,0.00,,2013-06-23 19:01:00,
2013-06-23 12:11:00,67.0,59.0,29.88,SW,225,1.0,5.0,75,0.00,,,0.00,,2013-06-23 19:11:00,
2013-06-23 12:53:00,67.0,58.0,29.87,WSW,254,2.0,7.0,74,0.00,,,0.00,,2013-06-23 19:53:00,
2013-06-23 13:01:00,68.0,59.0,29.87,WSW,254,4.0,8.0,74,0.00,,,0.00,,2013-06-23 20:01:00,
2013-06-23 13:11:00,68.0,59.0,29.87,WSW,241,3.0,10.0,73,0.00,,,0.00,,2013-06-23 20:11:00,
2013-06-23 13:33:00,69.0,59.0,29.86,South,191,2.0,7.0,71,0.00,,,0.00,,2013-06-23 20:33:00,
2013-06-23 13:42:00,69.0,59.0,29.86,SSW,200,1.0,9.0,71,0.00,,,0.00,,2013-06-23 20:42:00,
2013-06-23 13:52:00,70.0,59.0,29.85,SSW,210,1.0,7.0,69,0.00,,,0.00,,2013-06-23 20:52:00,
2013-06-23 14:01:00,69.0,58.0,29.85,SSW,202,2.0,10.0,69,0.00,,,0.00,,2013-06-23 21:01:00,
2013-06-23 14:11:00,69.0,58.0,29.85,SSW,202,2.0,10.0,69,0.00,,,0.00,,2013-06-23 21:11:00,
2013-06-23 14:22:00,70.0,59.0,29.85,WSW,256,3.0,8.0,69,0.00,,,0.00,,2013-06-23 21:22:00,
2013-06-23 14:33:00,70.0,59.0,29.84,SSW,211,2.0,8.0,69,0.00,,,0.00,,2013-06-23 21:33:00,
2013-06-23 14:43:00,71.0,59.0,29.84,West,275,2.0,8.0,67,0.00,,,0.00,,2013-06-23 21:43:00,
2013-06-23 14:52:00,71.0,59.0,29.84,South,191,1.0,6.0,66,0.00,,,0.00,,2013-06-23 21:52:00,
2013-06-23 15:01:00,71.0,59.0,29.84,SW,223,2.0,9.0,65,0.00,,,0.00,,2013-06-23 22:01:00,
2013-06-23 15:11:00,71.0,59.0,29.83,WSW,252,2.0,7.0,65,0.00,,,0.00,,2013-06-23 22:11:00,
2013-06-23 15:22:00,71.0,59.0,29.84,South,188,2.0,9.0,65,0.00,,,0.00,,2013-06-23 22:22:00,
2013-06-23 15:32:00,71.0,59.0,29.83,West,264,1.0,7.0,66,0.00,,,0.00,,2013-06-23 22:32:00,
2013-06-23 15:43:00,71.0,58.0,29.83,SW,228,1.0,8.0,64,0.00,,,0.00,,2013-06-23 22:43:00,
2013-06-23 15:53:00,71.0,59.0,29.83,West,259,0.0,7.0,66,0.00,,,0.00,,2013-06-23 22:53:00,
2013-06-23 16:01:00,71.0,59.0,29.83,SSW,194,0.0,7.0,65,0.00,,,0.00,,2013-06-23 23:01:00,
2013-06-23 16:11:00,72.0,59.0,29.83,WSW,252,1.0,5.0,64,0.00,,,0.00,,2013-06-23 23:11:00,
2013-06-23 16:22:00,72.0,59.0,29.82,North,355,1.0,7.0,64,0.00,,,0.00,,2013-06-23 23:22:00,
2013-06-23 16:33:00,72.0,59.0,29.82,WNW,294,0.0,9.0,63,0.00,,,0.00,,2013-06-23 23:33:00,
2013-06-23 16:44:00,72.0,59.0,29.82,SW,232,0.0,9.0,63,0.00,,,0.00,,2013-06-23 23:44:00,
2013-06-23 16:52:00,73.0,59.0,29.81,SSW,196,4.0,8.0,61,0.00,,,0.00,,2013-06-23 23:52:00,
2013-06-23 17:01:00,72.0,59.0,29.80,SW,232,0.0,4.0,63,0.00,,,0.00,,2013-06-24 00:01:00,
2013-06-23 17:11:00,73.0,59.0,29.80,SSE,165,0.0,3.0,62,0.00,,,0.00,,2013-06-24 00:11:00,
2013-06-23 17:33:00,73.0,59.0,29.80,SW,225,1.0,7.0,62,0.00,,,0.00,,2013-06-24 00:33:00,
2013-06-23 17:42:00,73.0,59.0,29.79,SSW,212,0.0,4.0,61,0.00,,,0.00,,2013-06-24 00:42:00,
2013-06-23 17:52:00,73.0,59.0,29.79,West,259,2.0,8.0,61,0.00,,,0.00,,2013-06-24 00:52:00,
2013-06-23 18:01:00,73.0,59.0,29.79,SSW,197,0.0,6.0,61,0.00,,,0.00,,2013-06-24 01:01:00,
2013-06-23 18:11:00,72.0,58.0,29.79,South,187,0.0,7.0,62,0.00,,,0.00,,2013-06-24 01:11:00,
2013-06-23 18:32:00,73.0,59.0,29.79,WSW,245,0.0,1.0,61,0.00,,,0.00,,2013-06-24 01:32:00,
2013-06-23 18:42:00,73.0,59.0,29.79,SSW,211,0.0,5.0,61,0.00,,,0.00,,2013-06-24 01:42:00,
2013-06-23 18:52:00,72.0,58.0,29.79,SSW,213,0.0,1.0,61,0.00,,,0.00,,2013-06-24 01:52:00,
2013-06-23 19:01:00,72.0,58.0,29.79,SW,215,1.0,5.0,62,0.00,,,0.00,,2013-06-24 02:01:00,
2013-06-23 19:11:00,72.0,58.0,29.79,SW,218,0.0,5.0,62,0.00,,,0.00,,2013-06-24 02:11:00,
2013-06-23 19:33:00,70.0,57.0,29.79,SW,223,0.0,3.0,64,0.00,,,0.00,,2013-06-24 02:33:00,
2013-06-23 19:42:00,70.0,57.0,29.79,SW,223,0.0,0.0,64,0.00,,,0.00,,2013-06-24 02:42:00,
2013-06-23 19:53:00,69.0,57.0,29.79,SW,224,0.0,0.0,65,0.00,,,0.00,,2013-06-24 02:53:00,
2013-06-23 20:01:00,69.0,57.0,29.79,SW,224,0.0,1.0,65,0.00,,,0.00,,2013-06-24 03:01:00,
2013-06-23 20:11:00,68.0,56.0,29.79,SW,225,0.0,1.0,66,0.00,,,0.00,,2013-06-24 03:11:00,
2013-06-23 20:21:00,68.0,57.0,29.79,SW,225,0.0,0.0,67,0.00,,,0.00,,2013-06-24 03:21:00,
2013-06-23 20:42:00,65.0,56.0,29.79,SW,225,0.0,0.0,72,0.00,,,0.00,,2013-06-24 03:42:00,
2013-06-23 20:53:00,65.0,56.0,29.79,SW,225,0.0,0.0,73,0.00,,,0.00,,2013-06-24 03:53:00,
2013-06-23 21:01:00,64.0,56.0,29.80,SW,225,0.0,0.0,75,0.00,,,0.00,,2013-06-24 04:01:00,
2013-06-23 21:11:00,63.0,56.0,29.80,SW,225,0.0,0.0,77,0.00,,,0.00,,2013-06-24 04:11:00,
2013-06-23 21:22:00,63.0,56.0,29.80,SW,225,0.0,0.0,77,0.00,,,0.00,,2013-06-24 04:22:00,
2013-06-23 21:33:00,62.0,55.0,29.80,SW,225,0.0,0.0,79,0.00,,,0.00,,2013-06-24 04:33:00,
2013-06-23 21:43:00,62.0,56.0,29.80,SW,225,0.0,0.0,80,0.00,,,0.00,,2013-06-24 04:43:00,
2013-06-23 21:52:00,61.0,55.0,29.80,SW,225,0.0,0.0,81,0.00,,,0.00,,2013-06-24 04:52:00,
2013-06-23 22:02:00,61.0,55.0,29.81,SW,225,0.0,0.0,82,0.00,,,0.00,,2013-06-24 05:02:00,
2013-06-23 22:12:00,61.0,56.0,29.81,SW,225,0.0,0.0,83,0.00,,,0.00,,2013-06-24 05:12:00,
2013-06-23 22:22:00,61.0,56.0,29.81,SW,225,0.0,0.0,83,0.00,,,0.00,,2013-06-24 05:22:00,
2013-06-23 22:43:00,60.0,55.0,29.82,SW,225,0.0,0.0,83,0.00,,,0.00,,2013-06-24 05:43:00,
2013-06-23 23:01:00,60.0,55.0,29.81,SW,225,0.0,0.0,84,0.00,,,0.00,,2013-06-24 06:01:00,
2013-06-23 23:42:00,60.0,55.0,29.81,SW,223,0.0,1.0,85,0.00,,,0.00,,2013-06-24 06:42:00,
2013-06-23 23:52:00,60.0,56.0,29.81,SW,224,0.0,0.0,86,0.00,,,0.00,,2013-06-24 06:52:00,